Location: Hiekkapohja
(62.3333°N, 25.7833°E)
Time: 19:55:13
(UTC+00:00)

COSMOS 2487 - Pass Details

Date: 07 August 2020
Orbit: 439 x 443 km, 74.7° (Epoch: 21 September)

Event Time Altitude Azimuth Distance (km) Brightness Sun altitude
Exits shadow 00:48:31 - 258° (WSW) 2,326 5.6 -6.3°
Reaches altitude 10° 00:50:39 10° 274° (W) 1,566 4.8 -6.1°
Maximum altitude 00:53:22 22° 326° (NNW) 1,037 4.5 -5.9°
Drops below altitude 10° 00:56:08 10° 19° (NNE) 1,572 6.6 -5.8°
Sets 00:58:33 0° 36° (NE) 2,446 9.1 -5.6°
